owner,sensor,date,latitude,longitude,vertical_datum,mass_concentration_of_oxygen_in_sea_water,qcFlag 
DISL,ioos:station:DISL:KATA:1,2014-09-01T00:00:00Z,30.2583,-88.2131,4.148,3.84,1111122 
DISL,ioos:station:DISL:KATA:1,2014-09-01T00:30:00Z,30.2583,-88.2131,4.156,3.89,1111122 
DISL,ioos:station:DISL:KATA:1,2014-09-01T01:00:00Z,30.2583,-88.2131,4.17,3.96,1111122 
DISL,ioos:station:DISL:KATA:1,2014-09-01T01:30:00Z,30.2583,-88.2131,4.188,4.24,1111122 
DISL,ioos:station:DISL:KATA:1,2014-09-01T02:00:00Z,30.2583,-88.2131,4.206,4.7,1111122 
DISL,ioos:station:DISL:KATA:1,2014-09-01T02:30:00Z,30.2583,-88.2131,4.223,5.02,1111122 
DISL,ioos:station:DISL:KATA:1,2014-09-01T03:00:00Z,30.2583,-88.2131,4.244,5.45,1111122 
DISL,ioos:station:DISL:KATA:1,2014-09-01T03:30:00Z,30.2583,-88.2131,4.261,5.76,1111122 
DISL,ioos:station:DISL:KATA:1,2014-09-01T04:00:00Z,30.2583,-88.2131,4.277,5.67,1111122 
DISL,ioos:station:DISL:KATA:1,2014-09-01T04:30:00Z,30.2583,-88.2131,4.286,5.38,1111122 
DISL,ioos:station:DISL:KATA:1,2014-09-01T05:00:00Z,30.2583,-88.2131,4.302,5.09,1111122 
DISL,ioos:station:DISL:KATA:1,2014-09-01T05:30:00Z,30.2583,-88.2131,4.31,5.08,1111122 
DISL,ioos:station:DISL:KATA:1,2014-09-01T06:00:00Z,30.2583,-88.2131,4.329,5.06,1111122 
DISL,ioos:station:DISL:KATA:1,2014-09-01T06:30:00Z,30.2583,-88.2131,4.348,5.09,1111122 
DISL,ioos:station:DISL:KATA:1,2014-09-01T07:00:00Z,30.2583,-88.2131,4.353,5.08,1111122 
DISL,ioos:station:DISL:KATA:1,2014-09-01T07:30:00Z,30.2583,-88.2131,4.361,4.96,1111122 
DISL,ioos:station:DISL:KATA:1,2014-09-01T08:00:00Z,30.2583,-88.2131,4.372,4.92,1111122 
DISL,ioos:station:DISL:KATA:1,2014-09-01T08:30:00Z,30.2583,-88.2131,4.382,4.81,1111122 
DISL,ioos:station:DISL:KATA:1,2014-09-01T09:00:00Z,30.2583,-88.2131,4.39,4.73,1111122 
DISL,ioos:station:DISL:KATA:1,2014-09-01T09:30:00Z,30.2583,-88.2131,4.375,4.66,1111122 
DISL,ioos:station:DISL:KATA:1,2014-09-01T10:00:00Z,30.2583,-88.2131,4.352,4.47,1111122 
DISL,ioos:station:DISL:KATA:1,2014-09-01T10:30:00Z,30.2583,-88.2131,4.337,4.46,1111122 
DISL,ioos:station:DISL:KATA:1,2014-09-01T11:00:00Z,30.2583,-88.2131,4.307,4.56,1111122 
DISL,ioos:station:DISL:KATA:1,2014-09-01T11:30:00Z,30.2583,-88.2131,4.285,4.61,1111122 
DISL,ioos:station:DISL:KATA:1,2014-09-01T12:00:00Z,30.2583,-88.2131,4.267,4.55,1111122 
DISL,ioos:station:DISL:KATA:1,2014-09-01T12:30:00Z,30.2583,-88.2131,4.237,4.42,1111122 
DISL,ioos:station:DISL:KATA:1,2014-09-01T13:00:00Z,30.2583,-88.2131,4.203,4.38,1111122 
DISL,ioos:station:DISL:KATA:1,2014-09-01T13:30:00Z,30.2583,-88.2131,4.17,4.44,1111122 
DISL,ioos:station:DISL:KATA:1,2014-09-01T14:00:00Z,30.2583,-88.2131,4.149,4.47,1111122 
DISL,ioos:station:DISL:KATA:1,2014-09-01T14:30:00Z,30.2583,-88.2131,4.128,4.72,1111122 
DISL,ioos:station:DISL:KATA:1,2014-09-01T15:00:00Z,30.2583,-88.2131,4.096,4.34,1111122 
DISL,ioos:station:DISL:KATA:1,2014-09-01T15:30:00Z,30.2583,-88.2131,4.077,5.02,1111122 
DISL,ioos:station:DISL:KATA:1,2014-09-01T16:00:00Z,30.2583,-88.2131,4.065,5.73,1111122 
DISL,ioos:station:DISL:KATA:1,2014-09-01T16:30:00Z,30.2583,-88.2131,4.06,5.01,1111122 
DISL,ioos:station:DISL:KATA:1,2014-09-01T17:00:00Z,30.2583,-88.2131,4.052,5.6,1111122 
DISL,ioos:station:DISL:KATA:1,2014-09-01T17:30:00Z,30.2583,-88.2131,4.053,5.87,1111122 
DISL,ioos:station:DISL:KATA:1,2014-09-01T18:00:00Z,30.2583,-88.2131,4.055,6.54,1111122 
DISL,ioos:station:DISL:KATA:1,2014-09-01T18:30:00Z,30.2583,-88.2131,4.035,6.52,1111122 
DISL,ioos:station:DISL:KATA:1,2014-09-01T19:00:00Z,30.2583,-88.2131,4.03,6.46,1111122 
DISL,ioos:station:DISL:KATA:1,2014-09-01T19:30:00Z,30.2583,-88.2131,4.018,6.05,1111122 
DISL,ioos:station:DISL:KATA:1,2014-09-01T20:00:00Z,30.2583,-88.2131,4.02,6.16,1111122 
DISL,ioos:station:DISL:KATA:1,2014-09-01T20:30:00Z,30.2583,-88.2131,4.036,7.35,1111122 
DISL,ioos:station:DISL:KATA:1,2014-09-01T21:00:00Z,30.2583,-88.2131,4.034,6.7,1111122 
DISL,ioos:station:DISL:KATA:1,2014-09-01T21:30:00Z,30.2583,-88.2131,4.046,6.32,1111122 
DISL,ioos:station:DISL:KATA:1,2014-09-01T22:00:00Z,30.2583,-88.2131,4.066,6.05,1111122 
DISL,ioos:station:DISL:KATA:1,2014-09-01T22:30:00Z,30.2583,-88.2131,4.081,5.96,1111122 
DISL,ioos:station:DISL:KATA:1,2014-09-01T23:00:00Z,30.2583,-88.2131,4.095,4.96,1111122 
DISL,ioos:station:DISL:KATA:1,2014-09-01T23:30:00Z,30.2583,-88.2131,4.112,3.68,1111122 
DISL,ioos:station:DISL:KATA:1,2014-09-02T00:00:00Z,30.2583,-88.2131,4.125,5.0,1111122 
DISL,ioos:station:DISL:KATA:1,2014-09-02T00:30:00Z,30.2583,-88.2131,4.15,4.46,1111122 
DISL,ioos:station:DISL:KATA:1,2014-09-02T01:00:00Z,30.2583,-88.2131,4.159,4.59,1111122 
DISL,ioos:station:DISL:KATA:1,2014-09-02T01:30:00Z,30.2583,-88.2131,4.166,5.67,1111122 
DISL,ioos:station:DISL:KATA:1,2014-09-02T02:00:00Z,30.2583,-88.2131,4.184,5.72,1111122 
DISL,ioos:station:DISL:KATA:1,2014-09-02T02:30:00Z,30.2583,-88.2131,4.181,6.16,1111122 
DISL,ioos:station:DISL:KATA:1,2014-09-02T03:00:00Z,30.2583,-88.2131,4.214,6.1,1111122 
DISL,ioos:station:DISL:KATA:1,2014-09-02T03:30:00Z,30.2583,-88.2131,4.235,6.1,1111122 
DISL,ioos:station:DISL:KATA:1,2014-09-02T04:00:00Z,30.2583,-88.2131,4.242,6.07,1111122 
DISL,ioos:station:DISL:KATA:1,2014-09-02T04:30:00Z,30.2583,-88.2131,4.258,6.04,1111122 
DISL,ioos:station:DISL:KATA:1,2014-09-02T05:00:00Z,30.2583,-88.2131,4.273,5.92,1111122 
DISL,ioos:station:DISL:KATA:1,2014-09-02T05:30:00Z,30.2583,-88.2131,4.298,5.95,1111122 
DISL,ioos:station:DISL:KATA:1,2014-09-02T06:00:00Z,30.2583,-88.2131,4.322,5.87,1111122 
DISL,ioos:station:DISL:KATA:1,2014-09-02T06:30:00Z,30.2583,-88.2131,4.35,5.47,1111122 
DISL,ioos:station:DISL:KATA:1,2014-09-02T07:00:00Z,30.2583,-88.2131,4.379,5.05,1111122 
DISL,ioos:station:DISL:KATA:1,2014-09-02T07:30:00Z,30.2583,-88.2131,4.399,5.12,1111122 
DISL,ioos:station:DISL:KATA:1,2014-09-02T08:00:00Z,30.2583,-88.2131,4.43,4.75,1111122 
DISL,ioos:station:DISL:KATA:1,2014-09-02T08:30:00Z,30.2583,-88.2131,4.437,4.58,1111122 
DISL,ioos:station:DISL:KATA:1,2014-09-02T09:00:00Z,30.2583,-88.2131,4.43,4.09,1111122 
DISL,ioos:station:DISL:KATA:1,2014-09-02T09:30:00Z,30.2583,-88.2131,4.411,3.66,1111122 
DISL,ioos:station:DISL:KATA:1,2014-09-02T10:00:00Z,30.2583,-88.2131,4.377,3.99,1111122 
DISL,ioos:station:DISL:KATA:1,2014-09-02T10:30:00Z,30.2583,-88.2131,4.342,4.32,1111122 
DISL,ioos:station:DISL:KATA:1,2014-09-02T11:00:00Z,30.2583,-88.2131,4.311,5.12,1111122 
DISL,ioos:station:DISL:KATA:1,2014-09-02T11:30:00Z,30.2583,-88.2131,4.286,5.84,1111122 
DISL,ioos:station:DISL:KATA:1,2014-09-02T12:00:00Z,30.2583,-88.2131,4.271,5.84,1111122 
DISL,ioos:station:DISL:KATA:1,2014-09-02T12:30:00Z,30.2583,-88.2131,4.249,5.87,1111122 
DISL,ioos:station:DISL:KATA:1,2014-09-02T13:00:00Z,30.2583,-88.2131,4.222,5.84,1111122 
DISL,ioos:station:DISL:KATA:1,2014-09-02T13:30:00Z,30.2583,-88.2131,4.202,5.53,1111122 
DISL,ioos:station:DISL:KATA:1,2014-09-02T14:00:00Z,30.2583,-88.2131,4.17,5.39,1111122 
DISL,ioos:station:DISL:KATA:1,2014-09-02T14:30:00Z,30.2583,-88.2131,4.137,5.31,1111122 
DISL,ioos:station:DISL:KATA:1,2014-09-02T15:00:00Z,30.2583,-88.2131,4.097,5.15,1111122 
DISL,ioos:station:DISL:KATA:1,2014-09-02T15:30:00Z,30.2583,-88.2131,4.065,5.17,1111122 
DISL,ioos:station:DISL:KATA:1,2014-09-02T16:00:00Z,30.2583,-88.2131,4.031,5.37,1111122 
DISL,ioos:station:DISL:KATA:1,2014-09-02T16:30:00Z,30.2583,-88.2131,4.003,5.79,1111122 
DISL,ioos:station:DISL:KATA:1,2014-09-02T17:00:00Z,30.2583,-88.2131,3.976,5.97,1111122 
DISL,ioos:station:DISL:KATA:1,2014-09-02T17:30:00Z,30.2583,-88.2131,3.964,5.77,1111122 
DISL,ioos:station:DISL:KATA:1,2014-09-02T18:00:00Z,30.2583,-88.2131,3.959,5.88,1111122 
DISL,ioos:station:DISL:KATA:1,2014-09-02T18:30:00Z,30.2583,-88.2131,3.942,6.09,1111122 
DISL,ioos:station:DISL:KATA:1,2014-09-02T19:00:00Z,30.2583,-88.2131,3.947,6.14,1111122 
DISL,ioos:station:DISL:KATA:1,2014-09-02T19:30:00Z,30.2583,-88.2131,3.941,6.16,1111122 
DISL,ioos:station:DISL:KATA:1,2014-09-02T20:00:00Z,30.2583,-88.2131,3.941,5.76,1111122 
DISL,ioos:station:DISL:KATA:1,2014-09-02T20:30:00Z,30.2583,-88.2131,3.929,5.12,1111122 
DISL,ioos:station:DISL:KATA:1,2014-09-02T21:00:00Z,30.2583,-88.2131,3.925,4.89,1111122 
DISL,ioos:station:DISL:KATA:1,2014-09-02T21:30:00Z,30.2583,-88.2131,3.943,5.04,1111122 
DISL,ioos:station:DISL:KATA:1,2014-09-02T22:00:00Z,30.2583,-88.2131,3.953,3.96,1111122 
DISL,ioos:station:DISL:KATA:1,2014-09-02T22:30:00Z,30.2583,-88.2131,3.963,3.93,1111122 
DISL,ioos:station:DISL:KATA:1,2014-09-02T23:00:00Z,30.2583,-88.2131,3.978,4.06,1111122 
DISL,ioos:station:DISL:KATA:1,2014-09-02T23:30:00Z,30.2583,-88.2131,3.99,4.19,1111122 
DISL,ioos:station:DISL:KATA:1,2014-09-03T00:00:00Z,30.2583,-88.2131,4.017,4.52,1111122 
DISL,ioos:station:DISL:KATA:1,2014-09-03T00:30:00Z,30.2583,-88.2131,4.05,4.44,1111122 
DISL,ioos:station:DISL:KATA:1,2014-09-03T01:00:00Z,30.2583,-88.2131,4.092,4.5,1111122 
DISL,ioos:station:DISL:KATA:1,2014-09-03T01:30:00Z,30.2583,-88.2131,4.113,4.65,1111122 
DISL,ioos:station:DISL:KATA:1,2014-09-03T02:00:00Z,30.2583,-88.2131,4.13,4.86,1111122 
DISL,ioos:station:DISL:KATA:1,2014-09-03T02:30:00Z,30.2583,-88.2131,4.148,5.09,1111122 
DISL,ioos:station:DISL:KATA:1,2014-09-03T03:00:00Z,30.2583,-88.2131,4.157,5.23,1111122 
DISL,ioos:station:DISL:KATA:1,2014-09-03T03:30:00Z,30.2583,-88.2131,4.176,5.53,1111122 
DISL,ioos:station:DISL:KATA:1,2014-09-03T04:00:00Z,30.2583,-88.2131,4.193,5.9,1111122 
DISL,ioos:station:DISL:KATA:1,2014-09-03T04:30:00Z,30.2583,-88.2131,4.204,6.29,1111122 
DISL,ioos:station:DISL:KATA:1,2014-09-03T05:00:00Z,30.2583,-88.2131,4.255,6.46,1111122 
DISL,ioos:station:DISL:KATA:1,2014-09-03T05:30:00Z,30.2583,-88.2131,4.243,6.54,1111122 
DISL,ioos:station:DISL:KATA:1,2014-09-03T06:00:00Z,30.2583,-88.2131,4.25,6.37,1111122 
DISL,ioos:station:DISL:KATA:1,2014-09-03T06:30:00Z,30.2583,-88.2131,4.286,6.28,1111122 
DISL,ioos:station:DISL:KATA:1,2014-09-03T07:00:00Z,30.2583,-88.2131,4.296,6.22,1111122 
DISL,ioos:station:DISL:KATA:1,2014-09-03T07:30:00Z,30.2583,-88.2131,4.293,6.14,1111122 
DISL,ioos:station:DISL:KATA:1,2014-09-03T08:00:00Z,30.2583,-88.2131,4.295,6.19,1111122 
DISL,ioos:station:DISL:KATA:1,2014-09-03T08:30:00Z,30.2583,-88.2131,4.301,6.14,1111122 
DISL,ioos:station:DISL:KATA:1,2014-09-03T09:00:00Z,30.2583,-88.2131,4.317,6.18,1111122 
DISL,ioos:station:DISL:KATA:1,2014-09-03T09:30:00Z,30.2583,-88.2131,4.328,6.09,1111122 
DISL,ioos:station:DISL:KATA:1,2014-09-03T10:00:00Z,30.2583,-88.2131,4.336,6.04,1111122 
DISL,ioos:station:DISL:KATA:1,2014-09-03T10:30:00Z,30.2583,-88.2131,4.349,6.04,1111122 
DISL,ioos:station:DISL:KATA:1,2014-09-03T11:00:00Z,30.2583,-88.2131,4.358,5.96,1111122 
DISL,ioos:station:DISL:KATA:1,2014-09-03T11:30:00Z,30.2583,-88.2131,4.364,5.93,1111122 
DISL,ioos:station:DISL:KATA:1,2014-09-03T12:00:00Z,30.2583,-88.2131,4.36,5.69,1111122 
DISL,ioos:station:DISL:KATA:1,2014-09-03T12:30:00Z,30.2583,-88.2131,4.31,5.65,1111122 
DISL,ioos:station:DISL:KATA:1,2014-09-03T13:00:00Z,30.2583,-88.2131,4.266,5.56,1111122 
DISL,ioos:station:DISL:KATA:1,2014-09-03T13:30:00Z,30.2583,-88.2131,4.226,5.49,1111122 
DISL,ioos:station:DISL:KATA:1,2014-09-03T14:00:00Z,30.2583,-88.2131,4.185,5.37,1111122 
DISL,ioos:station:DISL:KATA:1,2014-09-03T14:30:00Z,30.2583,-88.2131,4.158,5.48,1111122 
DISL,ioos:station:DISL:KATA:1,2014-09-03T15:00:00Z,30.2583,-88.2131,4.102,5.51,1111122 
DISL,ioos:station:DISL:KATA:1,2014-09-03T15:30:00Z,30.2583,-88.2131,4.061,5.45,1111122 
DISL,ioos:station:DISL:KATA:1,2014-09-03T16:00:00Z,30.2583,-88.2131,4.03,5.41,1111122 
DISL,ioos:station:DISL:KATA:1,2014-09-03T16:30:00Z,30.2583,-88.2131,3.995,5.42,1111122 
DISL,ioos:station:DISL:KATA:1,2014-09-03T17:00:00Z,30.2583,-88.2131,3.979,5.39,1111122 
DISL,ioos:station:DISL:KATA:1,2014-09-03T17:30:00Z,30.2583,-88.2131,3.948,5.26,1111122 
DISL,ioos:station:DISL:KATA:1,2014-09-03T18:00:00Z,30.2583,-88.2131,3.928,5.28,1111122 
DISL,ioos:station:DISL:KATA:1,2014-09-03T18:30:00Z,30.2583,-88.2131,3.905,5.1,1111122 
DISL,ioos:station:DISL:KATA:1,2014-09-03T19:00:00Z,30.2583,-88.2131,3.883,4.99,1111122 
DISL,ioos:station:DISL:KATA:1,2014-09-03T19:30:00Z,30.2583,-88.2131,3.876,4.57,1111122 
DISL,ioos:station:DISL:KATA:1,2014-09-03T20:00:00Z,30.2583,-88.2131,3.893,4.53,1111122 
DISL,ioos:station:DISL:KATA:1,2014-09-03T20:30:00Z,30.2583,-88.2131,3.904,4.68,1111122 
DISL,ioos:station:DISL:KATA:1,2014-09-03T21:00:00Z,30.2583,-88.2131,3.91,4.76,1111122 
DISL,ioos:station:DISL:KATA:1,2014-09-03T21:30:00Z,30.2583,-88.2131,3.912,4.52,1111122 
DISL,ioos:station:DISL:KATA:1,2014-09-03T22:00:00Z,30.2583,-88.2131,3.912,4.38,1111122 
DISL,ioos:station:DISL:KATA:1,2014-09-03T22:30:00Z,30.2583,-88.2131,3.918,4.04,1111122 
DISL,ioos:station:DISL:KATA:1,2014-09-03T23:00:00Z,30.2583,-88.2131,3.927,3.97,1111122 
DISL,ioos:station:DISL:KATA:1,2014-09-03T23:30:00Z,30.2583,-88.2131,3.929,4.33,1111122 
DISL,ioos:station:DISL:KATA:1,2014-09-04T00:00:00Z,30.2583,-88.2131,3.956,4.52,1111122 
DISL,ioos:station:DISL:KATA:1,2014-09-04T00:30:00Z,30.2583,-88.2131,3.986,4.65,1111122 
DISL,ioos:station:DISL:KATA:1,2014-09-04T01:00:00Z,30.2583,-88.2131,4.011,4.59,1111122 
DISL,ioos:station:DISL:KATA:1,2014-09-04T01:30:00Z,30.2583,-88.2131,4.028,4.25,1111122 
DISL,ioos:station:DISL:KATA:1,2014-09-04T02:00:00Z,30.2583,-88.2131,4.041,4.22,1111122 
DISL,ioos:station:DISL:KATA:1,2014-09-04T02:30:00Z,30.2583,-88.2131,4.07,4.42,1111122 
DISL,ioos:station:DISL:KATA:1,2014-09-04T03:00:00Z,30.2583,-88.2131,4.092,4.57,1111122 
DISL,ioos:station:DISL:KATA:1,2014-09-04T03:30:00Z,30.2583,-88.2131,4.115,4.72,1111122 
DISL,ioos:station:DISL:KATA:1,2014-09-04T04:00:00Z,30.2583,-88.2131,4.146,4.96,1111122 
DISL,ioos:station:DISL:KATA:1,2014-09-04T04:30:00Z,30.2583,-88.2131,4.171,5.23,1111122 
DISL,ioos:station:DISL:KATA:1,2014-09-04T05:00:00Z,30.2583,-88.2131,4.2,5.58,1111122 
DISL,ioos:station:DISL:KATA:1,2014-09-04T05:30:00Z,30.2583,-88.2131,4.231,5.95,1111122 
DISL,ioos:station:DISL:KATA:1,2014-09-04T06:00:00Z,30.2583,-88.2131,4.252,6.13,1111122 
DISL,ioos:station:DISL:KATA:1,2014-09-04T06:30:00Z,30.2583,-88.2131,4.264,6.36,1111122 
DISL,ioos:station:DISL:KATA:1,2014-09-04T07:00:00Z,30.2583,-88.2131,4.282,6.37,1111122 
DISL,ioos:station:DISL:KATA:1,2014-09-04T07:30:00Z,30.2583,-88.2131,4.298,6.65,1111122 
DISL,ioos:station:DISL:KATA:1,2014-09-04T08:00:00Z,30.2583,-88.2131,4.325,6.65,1111122 
DISL,ioos:station:DISL:KATA:1,2014-09-04T08:30:00Z,30.2583,-88.2131,4.34,6.58,1111122 
DISL,ioos:station:DISL:KATA:1,2014-09-04T09:00:00Z,30.2583,-88.2131,4.374,6.55,1111122 
DISL,ioos:station:DISL:KATA:1,2014-09-04T09:30:00Z,30.2583,-88.2131,4.397,6.42,1111122 
DISL,ioos:station:DISL:KATA:1,2014-09-04T10:00:00Z,30.2583,-88.2131,4.408,6.24,1111122 
DISL,ioos:station:DISL:KATA:1,2014-09-04T10:30:00Z,30.2583,-88.2131,4.415,6.27,1111122 
DISL,ioos:station:DISL:KATA:1,2014-09-04T11:00:00Z,30.2583,-88.2131,4.409,5.96,1111122 
DISL,ioos:station:DISL:KATA:1,2014-09-04T11:30:00Z,30.2583,-88.2131,4.392,6.01,1111122 
DISL,ioos:station:DISL:KATA:1,2014-09-04T12:00:00Z,30.2583,-88.2131,4.366,5.92,1111122 
DISL,ioos:station:DISL:KATA:1,2014-09-04T12:30:00Z,30.2583,-88.2131,4.333,5.47,1111122 
DISL,ioos:station:DISL:KATA:1,2014-09-04T13:00:00Z,30.2583,-88.2131,4.318,5.73,1111122 
DISL,ioos:station:DISL:KATA:1,2014-09-04T13:30:00Z,30.2583,-88.2131,4.293,5.85,1111122 
DISL,ioos:station:DISL:KATA:1,2014-09-04T14:00:00Z,30.2583,-88.2131,4.27,5.62,1111122 
DISL,ioos:station:DISL:KATA:1,2014-09-04T14:30:00Z,30.2583,-88.2131,4.252,5.54,1111122 
DISL,ioos:station:DISL:KATA:1,2014-09-04T15:00:00Z,30.2583,-88.2131,4.238,5.89,1111122 
DISL,ioos:station:DISL:KATA:1,2014-09-04T15:30:00Z,30.2583,-88.2131,4.201,5.95,1111122 
DISL,ioos:station:DISL:KATA:1,2014-09-04T16:00:00Z,30.2583,-88.2131,4.162,5.9,1111122 
DISL,ioos:station:DISL:KATA:1,2014-09-04T16:30:00Z,30.2583,-88.2131,4.125,6.07,1111122 
DISL,ioos:station:DISL:KATA:1,2014-09-04T17:00:00Z,30.2583,-88.2131,4.067,6.08,1111122 
DISL,ioos:station:DISL:KATA:1,2014-09-04T17:30:00Z,30.2583,-88.2131,4.025,6.28,1111122 
DISL,ioos:station:DISL:KATA:1,2014-09-04T18:00:00Z,30.2583,-88.2131,3.976,6.42,1111122 
DISL,ioos:station:DISL:KATA:1,2014-09-04T18:30:00Z,30.2583,-88.2131,3.946,6.66,1111122 
DISL,ioos:station:DISL:KATA:1,2014-09-04T19:00:00Z,30.2583,-88.2131,3.906,6.79,1111122 
DISL,ioos:station:DISL:KATA:1,2014-09-04T19:30:00Z,30.2583,-88.2131,3.888,6.92,1111122 
DISL,ioos:station:DISL:KATA:1,2014-09-04T20:00:00Z,30.2583,-88.2131,3.875,7.05,1111122 
DISL,ioos:station:DISL:KATA:1,2014-09-04T20:30:00Z,30.2583,-88.2131,3.865,7.38,1111122 
DISL,ioos:station:DISL:KATA:1,2014-09-04T21:00:00Z,30.2583,-88.2131,3.868,7.7,1111122 
DISL,ioos:station:DISL:KATA:1,2014-09-04T21:30:00Z,30.2583,-88.2131,3.866,7.61,1111122 
DISL,ioos:station:DISL:KATA:1,2014-09-04T22:00:00Z,30.2583,-88.2131,3.876,6.82,1111122 
DISL,ioos:station:DISL:KATA:1,2014-09-04T22:30:00Z,30.2583,-88.2131,3.895,6.91,1111122 
DISL,ioos:station:DISL:KATA:1,2014-09-04T23:00:00Z,30.2583,-88.2131,3.883,7.14,1111122 
DISL,ioos:station:DISL:KATA:1,2014-09-04T23:30:00Z,30.2583,-88.2131,3.881,7.18,1111122 
DISL,ioos:station:DISL:KATA:1,2014-09-05T00:00:00Z,30.2583,-88.2131,3.893,6.7,1111122 
DISL,ioos:station:DISL:KATA:1,2014-09-05T00:30:00Z,30.2583,-88.2131,3.901,7.15,1111122 
DISL,ioos:station:DISL:KATA:1,2014-09-05T01:00:00Z,30.2583,-88.2131,3.922,6.97,1111122 
DISL,ioos:station:DISL:KATA:1,2014-09-05T01:30:00Z,30.2583,-88.2131,3.944,7.33,1111122 
DISL,ioos:station:DISL:KATA:1,2014-09-05T02:00:00Z,30.2583,-88.2131,3.97,7.08,1111122 
DISL,ioos:station:DISL:KATA:1,2014-09-05T02:30:00Z,30.2583,-88.2131,4.011,7.25,1111122 
DISL,ioos:station:DISL:KATA:1,2014-09-05T03:00:00Z,30.2583,-88.2131,4.049,7.22,1111122 
DISL,ioos:station:DISL:KATA:1,2014-09-05T03:30:00Z,30.2583,-88.2131,4.084,7.0,1111122 
DISL,ioos:station:DISL:KATA:1,2014-09-05T04:00:00Z,30.2583,-88.2131,4.109,6.59,1111122 
DISL,ioos:station:DISL:KATA:1,2014-09-05T04:30:00Z,30.2583,-88.2131,4.118,6.43,1111122 
DISL,ioos:station:DISL:KATA:1,2014-09-05T05:00:00Z,30.2583,-88.2131,4.126,6.17,1111122 
DISL,ioos:station:DISL:KATA:1,2014-09-05T05:30:00Z,30.2583,-88.2131,4.137,6.03,1111122 
DISL,ioos:station:DISL:KATA:1,2014-09-05T06:00:00Z,30.2583,-88.2131,4.151,5.94,1111122 
DISL,ioos:station:DISL:KATA:1,2014-09-05T06:30:00Z,30.2583,-88.2131,4.172,5.83,1111122 
DISL,ioos:station:DISL:KATA:1,2014-09-05T07:00:00Z,30.2583,-88.2131,4.19,5.74,1111122 
DISL,ioos:station:DISL:KATA:1,2014-09-05T07:30:00Z,30.2583,-88.2131,4.23,5.67,1111122 
DISL,ioos:station:DISL:KATA:1,2014-09-05T08:00:00Z,30.2583,-88.2131,4.267,5.49,1111122 
DISL,ioos:station:DISL:KATA:1,2014-09-05T08:30:00Z,30.2583,-88.2131,4.304,5.55,1111122 
DISL,ioos:station:DISL:KATA:1,2014-09-05T09:00:00Z,30.2583,-88.2131,4.337,5.51,1111122 
DISL,ioos:station:DISL:KATA:1,2014-09-05T09:30:00Z,30.2583,-88.2131,4.369,5.46,1111122 
DISL,ioos:station:DISL:KATA:1,2014-09-05T10:00:00Z,30.2583,-88.2131,4.385,5.51,1111122 
DISL,ioos:station:DISL:KATA:1,2014-09-05T10:30:00Z,30.2583,-88.2131,4.373,5.72,1111122 
DISL,ioos:station:DISL:KATA:1,2014-09-05T11:00:00Z,30.2583,-88.2131,4.383,5.79,1111122 
DISL,ioos:station:DISL:KATA:1,2014-09-05T11:30:00Z,30.2583,-88.2131,4.374,5.66,1111122 
DISL,ioos:station:DISL:KATA:1,2014-09-05T12:00:00Z,30.2583,-88.2131,4.374,5.66,1111122 
DISL,ioos:station:DISL:KATA:1,2014-09-05T12:30:00Z,30.2583,-88.2131,4.322,5.5,1111122 
DISL,ioos:station:DISL:KATA:1,2014-09-05T13:00:00Z,30.2583,-88.2131,4.32,5.38,1111122 
DISL,ioos:station:DISL:KATA:1,2014-09-05T13:30:00Z,30.2583,-88.2131,4.318,5.35,1111122 
DISL,ioos:station:DISL:KATA:1,2014-09-05T14:00:00Z,30.2583,-88.2131,4.315,5.28,1111122 
DISL,ioos:station:DISL:KATA:1,2014-09-05T14:30:00Z,30.2583,-88.2131,4.296,5.15,1111122 
DISL,ioos:station:DISL:KATA:1,2014-09-05T15:00:00Z,30.2583,-88.2131,4.282,5.04,1111122 
DISL,ioos:station:DISL:KATA:1,2014-09-05T15:30:00Z,30.2583,-88.2131,4.255,4.83,1111122 
DISL,ioos:station:DISL:KATA:1,2014-09-05T16:00:00Z,30.2583,-88.2131,4.207,5.08,1111122 
DISL,ioos:station:DISL:KATA:1,2014-09-05T16:30:00Z,30.2583,-88.2131,4.173,5.25,1111122 
DISL,ioos:station:DISL:KATA:1,2014-09-05T17:00:00Z,30.2583,-88.2131,4.108,5.44,1111122 
DISL,ioos:station:DISL:KATA:1,2014-09-05T17:30:00Z,30.2583,-88.2131,4.056,5.19,1111122 
DISL,ioos:station:DISL:KATA:1,2014-09-05T18:00:00Z,30.2583,-88.2131,4.007,5.36,1111122 
DISL,ioos:station:DISL:KATA:1,2014-09-05T18:30:00Z,30.2583,-88.2131,3.948,5.41,1111122 
DISL,ioos:station:DISL:KATA:1,2014-09-05T19:00:00Z,30.2583,-88.2131,3.902,5.58,1111122 
DISL,ioos:station:DISL:KATA:1,2014-09-05T19:30:00Z,30.2583,-88.2131,3.863,6.0,1111122 
DISL,ioos:station:DISL:KATA:1,2014-09-05T20:00:00Z,30.2583,-88.2131,3.835,6.11,1111122 
DISL,ioos:station:DISL:KATA:1,2014-09-05T20:30:00Z,30.2583,-88.2131,3.829,5.73,1111122 
DISL,ioos:station:DISL:KATA:1,2014-09-05T21:00:00Z,30.2583,-88.2131,3.82,5.46,1111122 
DISL,ioos:station:DISL:KATA:1,2014-09-05T21:30:00Z,30.2583,-88.2131,3.829,5.51,1111122 
DISL,ioos:station:DISL:KATA:1,2014-09-05T22:00:00Z,30.2583,-88.2131,3.826,5.17,1111122 
DISL,ioos:station:DISL:KATA:1,2014-09-05T22:30:00Z,30.2583,-88.2131,3.831,4.89,1111122 
DISL,ioos:station:DISL:KATA:1,2014-09-05T23:00:00Z,30.2583,-88.2131,3.835,4.78,1111122 
DISL,ioos:station:DISL:KATA:1,2014-09-05T23:30:00Z,30.2583,-88.2131,3.842,4.57,1111122 
DISL,ioos:station:DISL:KATA:1,2014-09-06T00:00:00Z,30.2583,-88.2131,3.851,4.46,1111122 
DISL,ioos:station:DISL:KATA:1,2014-09-06T00:30:00Z,30.2583,-88.2131,3.865,4.43,1111122 
DISL,ioos:station:DISL:KATA:1,2014-09-06T01:00:00Z,30.2583,-88.2131,3.882,4.58,1111122 
DISL,ioos:station:DISL:KATA:1,2014-09-06T01:30:00Z,30.2583,-88.2131,3.912,4.56,1111122 
DISL,ioos:station:DISL:KATA:1,2014-09-06T02:00:00Z,30.2583,-88.2131,3.919,4.68,1111122 
DISL,ioos:station:DISL:KATA:1,2014-09-06T02:30:00Z,30.2583,-88.2131,3.937,4.63,1111122 
DISL,ioos:station:DISL:KATA:1,2014-09-06T03:00:00Z,30.2583,-88.2131,3.965,4.98,1111122 
DISL,ioos:station:DISL:KATA:1,2014-09-06T03:30:00Z,30.2583,-88.2131,3.99,5.04,1111122 
DISL,ioos:station:DISL:KATA:1,2014-09-06T04:00:00Z,30.2583,-88.2131,4.01,5.19,1111122 
DISL,ioos:station:DISL:KATA:1,2014-09-06T04:30:00Z,30.2583,-88.2131,4.03,5.37,1111122 
DISL,ioos:station:DISL:KATA:1,2014-09-06T05:00:00Z,30.2583,-88.2131,4.055,5.67,1111122 
DISL,ioos:station:DISL:KATA:1,2014-09-06T05:30:00Z,30.2583,-88.2131,4.072,6.02,1111122 
DISL,ioos:station:DISL:KATA:1,2014-09-06T06:00:00Z,30.2583,-88.2131,4.092,6.27,1111122 
DISL,ioos:station:DISL:KATA:1,2014-09-06T06:30:00Z,30.2583,-88.2131,4.117,6.32,1111122 
DISL,ioos:station:DISL:KATA:1,2014-09-06T07:00:00Z,30.2583,-88.2131,4.134,6.38,1111122 
DISL,ioos:station:DISL:KATA:1,2014-09-06T07:30:00Z,30.2583,-88.2131,4.153,6.48,1111122 
DISL,ioos:station:DISL:KATA:1,2014-09-06T08:00:00Z,30.2583,-88.2131,4.171,6.45,1111122 
DISL,ioos:station:DISL:KATA:1,2014-09-06T08:30:00Z,30.2583,-88.2131,4.176,6.59,1111122 
DISL,ioos:station:DISL:KATA:1,2014-09-06T09:00:00Z,30.2583,-88.2131,4.184,6.53,1111122 
DISL,ioos:station:DISL:KATA:1,2014-09-06T09:30:00Z,30.2583,-88.2131,4.201,6.41,1111122 
DISL,ioos:station:DISL:KATA:1,2014-09-06T10:00:00Z,30.2583,-88.2131,4.219,6.34,1111122 
DISL,ioos:station:DISL:KATA:1,2014-09-06T10:30:00Z,30.2583,-88.2131,4.241,6.32,1111122 
DISL,ioos:station:DISL:KATA:1,2014-09-06T11:00:00Z,30.2583,-88.2131,4.258,6.34,1111122 
DISL,ioos:station:DISL:KATA:1,2014-09-06T11:30:00Z,30.2583,-88.2131,4.275,6.21,1111122 
DISL,ioos:station:DISL:KATA:1,2014-09-06T12:00:00Z,30.2583,-88.2131,4.278,6.04,1111122 
DISL,ioos:station:DISL:KATA:1,2014-09-06T12:30:00Z,30.2583,-88.2131,4.294,6.03,1111122 
DISL,ioos:station:DISL:KATA:1,2014-09-06T13:00:00Z,30.2583,-88.2131,4.283,5.96,1111122 
DISL,ioos:station:DISL:KATA:1,2014-09-06T13:30:00Z,30.2583,-88.2131,4.278,5.9,1111122 
DISL,ioos:station:DISL:KATA:1,2014-09-06T14:00:00Z,30.2583,-88.2131,4.269,5.76,1111122 
DISL,ioos:station:DISL:KATA:1,2014-09-06T14:30:00Z,30.2583,-88.2131,4.271,5.57,1111122 
DISL,ioos:station:DISL:KATA:1,2014-09-06T15:00:00Z,30.2583,-88.2131,4.25,5.44,1111122 
DISL,ioos:station:DISL:KATA:1,2014-09-06T15:30:00Z,30.2583,-88.2131,4.243,5.47,1111122 